Location: Unspecified
(49.2170°N, 0.0000°E)
Time: 22:39:09
(UTC+00:00)

Transit 4A - Pass Details

Date: 25 June 2019
Orbit: 866 x 978 km, 66.8° (Epoch: 12 October)

Event Time Altitude Azimuth Distance (km) Brightness Sun altitude
Rises 09:29:08 0° 253° (WSW) 3,639 10.7 50.4°
Reaches altitude 10° 09:31:59 10° 264° (W) 2,708 10.1 50.8°
Maximum altitude 09:37:33 31° 325° (NW) 1,642 9.2 51.6°
Drops below altitude 10° 09:43:12 10° 27° (NNE) 2,739 10.5 52.4°
Sets 09:46:07 0° 38° (NE) 3,687 11.1 52.8°
